period_start,C,m1,H,J0,J1,J2,J3,J4,J5,JA,JB,JC,JD,JJ,JK,JN,#
2018-10-01 00:04:30,0.00,0.00,0.00,26.50,31.10,33.04,-0.20,-4.25,1016.42,2009.98,3709.96,3028.93,3479.00,0.00,0.00,0.00,0000 0000 0000 A000 020008
2018-10-01 00:09:32,0.00,0.00,0.00,26.51,31.10,33.01,-0.20,-4.24,1016.27,2009.99,3709.97,3028.95,3479.01,0.00,0.00,0.00,0000 0000 0000 A000 020008
2018-10-01 00:14:33,0.00,0.00,0.00,26.52,31.10,33.07,-0.20,-4.25,1016.16,2009.99,3709.98,3028.98,3479.02,0.00,0.00,0.00,0000 0000 0000 A000 020008
2018-10-01 00:19:34,0.00,0.00,0.00,26.52,31.10,33.03,-0.20,-4.25,1016.15,2009.99,3709.98,3028.97,3479.01,0.00,0.00,0.00,0000 0000 0000 A000 020008
2018-10-01 00:24:35,0.00,0.00,0.00,26.52,31.10,33.06,-0.20,-4.25,1016.14,2009.99,3709.98,3028.97,3479.01,0.00,0.00,0.00,0000 0000 0000 A000 020008
2018-10-01 00:29:36,0.00,0.00,0.00,26.52,31.10,33.02,-0.20,-4.25,1016.13,2009.99,3709.98,3028.98,3479.01,0.00,0.00,0.00,0000 0000 0000 A000 020008
2018-10-01 00:34:37,0.00,0.00,0.00,26.52,31.10,32.97,-0.20,-4.25,1016.13,2009.99,3709.97,3028.97,3479.00,0.00,0.00,0.00,0000 0000 0000 A000 020008
2018-10-01 00:39:39,0.00,0.00,0.00,26.52,31.10,33.02,-0.20,-4.25,1016.13,2009.99,3709.97,3028.97,3479.00,0.00,0.00,0.00,0000 0000 0000 A000 020008
2018-10-01 00:44:40,0.00,0.00,0.00,26.52,31.10,33.05,-0.20,-4.25,1016.13,2009.98,3709.98,3028.99,3479.02,0.00,0.00,0.00,0000 0000 0000 A000 020008
2018-10-01 00:49:41,0.00,0.00,0.00,26.52,31.10,33.07,-0.20,-4.25,1016.13,2009.99,3709.99,3028.97,3479.01,0.00,0.00,0.00,0000 0000 0000 A000 020008
2018-10-01 00:54:42,0.00,0.00,0.00,26.52,31.10,33.00,-0.20,-4.25,1016.11,2009.99,3709.98,3028.98,3479.03,0.00,0.00,0.00,0000 0000 0000 A000 020008
2018-10-01 00:59:43,0.00,0.00,0.00,26.53,31.10,33.02,-0.20,-4.25,1015.92,2009.99,3709.97,3028.97,3479.01,0.00,0.00,0.00,0000 0000 0000 A000 020008
2018-10-01 01:04:44,0.00,0.00,0.00,26.52,31.10,33.04,-0.20,-4.25,1015.66,2009.99,3709.97,3028.93,3479.00,0.00,0.00,0.00,0000 0000 0000 A000 020008
2018-10-01 01:09:45,0.00,0.00,0.00,26.52,31.10,33.04,-0.20,-4.25,1015.66,2009.98,3709.95,3028.95,3479.01,0.00,0.00,0.00,0000 0000 0000 A000 020008
2018-10-01 01:14:46,0.00,0.00,0.00,26.52,31.10,33.04,-0.20,-4.25,1015.64,2009.98,3709.96,3028.95,3479.00,0.00,0.00,0.00,0000 0000 0000 A000 020008
2018-10-01 01:19:48,0.00,0.00,0.00,26.52,31.10,33.08,-0.20,-4.25,1015.64,2009.99,3709.98,3028.97,3479.00,0.00,0.00,0.00,0000 0000 0000 A000 020008
2018-10-01 01:24:49,0.00,0.00,0.00,26.54,31.10,33.09,-0.20,-4.25,1015.64,2009.98,3709.98,3028.94,3479.00,0.00,0.00,0.00,0000 0000 0000 A000 020008
2018-10-01 01:29:50,0.00,0.00,0.00,26.55,31.11,33.06,-0.20,-4.25,1015.63,2009.98,3709.97,3028.95,3479.00,0.00,0.00,0.00,0000 0000 0000 A000 020008
2018-10-01 01:34:51,0.00,0.00,0.00,26.55,31.11,33.03,-0.20,-4.25,1015.41,2009.99,3709.98,3028.96,3479.01,0.00,0.00,0.00,0000 0000 0000 A000 020008
2018-10-01 01:39:52,0.00,0.00,0.00,26.55,31.12,33.04,-0.20,-4.25,1015.18,2009.99,3709.95,3028.98,3479.00,0.00,0.00,0.00,0000 0000 0000 A000 020008
2018-10-01 01:44:53,0.00,0.00,0.00,26.55,31.12,33.07,-0.20,-4.25,1015.17,2009.99,3709.97,3028.98,3479.00,0.00,0.00,0.00,0000 0000 0000 A000 020008
2018-10-01 01:49:54,0.00,0.00,0.00,26.56,31.12,33.05,-0.20,-4.25,1015.16,2009.99,3709.97,3028.95,3479.00,0.00,0.00,0.00,0000 0000 0000 A000 020008
2018-10-01 01:54:55,0.00,0.00,0.00,26.55,31.12,33.11,-0.20,-4.25,1015.15,2009.99,3709.98,3028.97,3479.00,0.00,0.00,0.00,0000 0000 0000 A000 020008
2018-10-01 01:59:56,0.00,0.00,0.00,26.56,31.12,33.13,-0.20,-4.25,1015.15,2009.99,3709.98,3028.99,3479.02,0.00,0.00,0.00,0000 0000 0000 A000 020008
2018-10-01 02:04:58,0.00,0.00,0.00,26.56,31.12,33.10,-0.20,-4.25,1015.15,2009.99,3709.98,3028.98,3479.05,0.00,0.00,0.00,0000 0000 0000 A000 020008
2018-10-01 02:09:59,0.00,0.00,0.00,26.56,31.12,33.12,-0.20,-4.25,1015.14,2009.99,3709.98,3028.98,3479.02,0.00,0.00,0.00,0000 0000 0000 A000 020008
2018-10-01 02:15:00,0.00,0.00,0.00,26.57,31.12,33.07,-0.20,-4.25,1015.05,2009.99,3709.98,3028.97,3479.02,0.00,0.00,0.00,0000 0000 0000 A000 020008
2018-10-01 02:20:01,0.00,0.00,0.00,26.56,31.12,33.11,-0.20,-4.25,1014.74,2009.99,3709.99,3028.98,3479.04,0.00,0.00,0.00,0000 0000 0000 A000 020008
2018-10-01 02:25:02,0.00,0.00,0.00,26.57,31.12,33.13,-0.20,-4.25,1014.68,2009.99,3709.98,3028.98,3479.01,0.00,0.00,0.00,0000 0000 0000 A000 020008
2018-10-01 02:30:03,0.00,0.00,0.00,26.57,31.12,33.09,-0.20,-4.26,1014.67,2009.99,3709.98,3028.98,3479.00,0.00,0.00,0.00,0000 0000 0000 A000 020008
2018-10-01 02:35:05,0.00,0.00,0.00,26.57,31.12,33.05,-0.20,-4.25,1014.67,2009.98,3709.97,3028.95,3479.00,0.00,0.00,0.00,0000 0000 0000 A000 020008
2018-10-01 02:40:06,0.00,0.00,0.00,26.57,31.12,33.05,-0.20,-4.25,1014.66,2009.99,3709.97,3028.96,3479.00,0.00,0.00,0.00,0000 0000 0000 A000 020008
2018-10-01 02:45:07,0.00,0.00,0.00,26.57,31.12,33.06,-0.20,-4.25,1014.66,2009.99,3709.98,3028.95,3479.01,0.00,0.00,0.00,0000 0000 0000 A000 020008
2018-10-01 02:50:08,0.00,0.00,0.00,26.57,31.12,33.04,-0.20,-4.25,1014.66,2009.99,3709.98,3028.98,3479.01,0.00,0.00,0.00,0000 0000 0000 A000 020008
2018-10-01 02:55:09,0.00,0.00,0.00,26.59,31.13,33.04,-0.20,-4.25,1014.66,2009.99,3709.97,3028.94,3479.01,0.00,0.00,0.00,0000 0000 0000 A000 020008
2018-10-01 03:00:10,0.00,0.00,0.00,26.60,31.13,33.05,-0.20,-4.26,1014.66,2009.98,3709.97,3028.97,3479.01,0.00,0.00,0.00,0000 0000 0000 A000 020008
2018-10-01 03:05:11,0.00,0.00,0.00,26.60,31.14,33.12,-0.20,-4.25,1014.66,2009.99,3709.96,3028.97,3479.01,0.00,0.00,0.00,0000 0000 0000 A000 020008
2018-10-01 03:10:12,0.00,0.00,0.00,26.60,31.15,33.09,-0.20,-4.25,1014.64,2009.98,3709.94,3028.95,3479.00,0.00,0.00,0.00,0000 0000 0000 A000 020008
2018-10-01 03:15:13,0.00,0.00,0.00,26.60,31.15,33.13,-0.20,-4.25,1014.60,2009.98,3709.94,3028.93,3479.00,0.00,0.00,0.00,0000 0000 0000 A000 020008
2018-10-01 03:20:14,0.00,0.00,0.00,26.62,31.15,33.13,-0.20,-4.25,1014.37,2009.99,3709.88,3028.90,3479.00,0.00,0.00,0.00,0000 0000 0000 A000 020008
2018-10-01 03:25:15,0.00,0.00,0.00,26.62,31.15,33.13,-0.20,-4.25,1014.23,2009.98,3709.84,3028.86,3479.00,0.00,0.00,0.00,0000 0000 0000 A000 020008
2018-10-01 03:30:17,0.00,0.00,0.00,26.62,31.15,33.12,-0.20,-4.25,1014.20,2009.96,3709.84,3028.74,3479.00,0.00,0.00,0.00,0000 0000 0000 A000 020008
2018-10-01 03:35:18,0.00,0.00,0.00,26.62,31.15,33.07,-0.20,-4.25,1014.18,2009.98,3709.80,3028.74,3479.00,0.00,0.00,0.00,0000 0000 0000 A000 020008
2018-10-01 03:40:20,0.00,0.00,0.00,26.64,31.15,33.03,-0.20,-4.25,1014.18,2009.97,3709.72,3028.73,3479.00,0.00,0.00,0.00,0000 0000 0000 A000 020008
2018-10-01 03:45:21,0.00,0.00,0.00,26.66,31.15,33.11,-0.20,-4.25,1014.18,2009.95,3709.44,3028.45,3479.00,0.00,0.00,0.00,0000 0000 0000 A000 020008
2018-10-01 03:50:22,0.00,0.00,0.00,26.69,31.17,33.11,-0.20,-4.25,1014.16,2009.96,3709.57,3028.49,3478.99,0.00,0.00,0.00,0000 0000 0000 A000 020008
2018-10-01 03:55:23,0.00,0.00,0.00,26.71,31.17,33.16,-0.20,-4.25,1014.13,2009.94,3709.65,3028.53,3478.99,0.00,0.00,0.00,0000 0000 0000 A000 020008
2018-10-01 04:00:24,0.00,0.00,0.00,26.74,31.17,33.14,-0.20,-4.25,1014.02,2009.94,3709.46,3028.38,3478.98,0.00,0.00,0.00,0000 0000 0000 A000 020008
2018-10-01 04:05:26,0.00,0.00,0.00,26.77,31.17,33.15,-0.20,-4.25,1013.96,2009.94,3709.40,3028.37,3478.99,0.00,0.00,0.00,0000 0000 0000 A000 020008
2018-10-01 04:10:27,0.00,0.00,0.00,26.79,31.20,33.16,-0.20,-4.25,1013.91,2009.81,3709.10,3028.07,3478.96,0.00,0.00,0.00,0000 0000 0000 A000 020008
2018-10-01 04:15:28,0.00,0.00,0.00,26.81,31.20,33.21,-0.20,-4.25,1013.90,2009.47,3709.01,3028.01,3478.69,0.00,0.00,0.00,0000 0000 0000 A000 020008
2018-10-01 04:20:30,0.00,0.00,0.00,26.84,31.20,33.23,-0.20,-4.25,1013.88,2009.21,3709.00,3028.00,3478.19,0.00,0.00,0.00,0000 0000 0000 A000 020008
2018-10-01 04:25:30,0.00,0.00,0.00,26.85,31.22,33.27,-0.20,-4.25,1013.76,2009.10,3709.00,3028.00,3478.07,0.00,0.00,0.00,0000 0000 0000 A000 020008
2018-10-01 04:30:31,0.00,0.00,0.00,26.87,31.22,33.28,-0.20,-4.26,1013.71,2009.17,3709.00,3028.00,3478.10,0.00,0.00,0.00,0000 0000 0000 A000 020008
2018-10-01 04:35:32,0.00,0.00,0.00,26.87,31.23,33.26,-0.20,-4.27,1013.71,2009.11,3709.00,3028.00,3478.14,0.00,0.00,0.00,0000 0000 0000 A000 020008
2018-10-01 04:40:34,0.00,0.00,0.00,26.88,31.25,33.28,-0.20,-4.25,1013.70,2009.11,3709.00,3028.00,3478.07,0.00,0.00,0.00,0000 0000 0000 A000 020008
2018-10-01 04:45:34,0.00,0.00,0.00,26.90,31.25,33.31,-0.20,-4.25,1013.70,2009.06,3708.99,3028.00,3478.02,0.00,0.00,0.00,0000 0000 0000 A000 020008
2018-10-01 04:50:35,0.00,0.00,0.00,26.91,31.27,33.30,-0.20,-4.27,1013.70,2009.03,3708.96,3027.99,3478.00,0.00,0.00,0.00,0000 0000 0000 A000 020008
2018-10-01 04:55:37,0.00,0.00,0.00,26.92,31.27,33.34,-0.20,-4.27,1013.70,2009.02,3708.96,3027.98,3478.00,0.00,0.00,0.00,0000 0000 0000 A000 020008
2018-10-01 05:00:38,0.00,0.00,0.00,26.94,31.29,33.33,-0.20,-4.27,1013.70,2009.00,3708.66,3027.90,3478.00,0.00,0.00,0.00,0000 0000 0000 A000 020008
2018-10-01 05:05:39,0.00,0.00,0.00,26.95,31.30,33.38,-0.20,-4.27,1013.69,2009.00,3708.66,3027.87,3477.99,0.00,0.00,0.00,0000 0000 0000 A000 020008
2018-10-01 05:10:40,0.00,0.00,0.00,26.95,31.31,33.39,-0.20,-4.28,1013.69,2009.00,3708.68,3027.90,3477.99,0.00,0.00,0.00,0000 0000 0000 A000 020008
2018-10-01 05:15:41,0.00,0.00,0.00,26.97,31.32,33.37,-0.20,-4.31,1013.69,2009.00,3708.61,3027.90,3477.99,0.00,0.00,0.00,0000 0000 0000 A000 020008
2018-10-01 05:20:42,0.00,0.00,0.00,26.98,31.33,33.39,-0.20,-4.26,1013.69,2009.00,3708.38,3027.64,3477.97,0.00,0.00,0.00,0000 0000 0000 A000 020008
2018-10-01 05:25:44,0.00,0.00,0.00,27.00,31.35,33.41,-0.20,-4.32,1013.69,2009.00,3708.08,3027.15,3477.93,0.00,0.00,0.00,0000 0000 0000 A000 020008
2018-10-01 05:30:45,0.00,0.00,0.00,27.00,31.36,33.42,-0.20,-4.32,1013.69,2009.00,3708.02,3027.09,3477.74,0.00,0.00,0.00,0000 0000 0000 A000 020008
2018-10-01 05:35:46,0.00,0.00,0.00,27.02,31.37,33.42,-0.20,-4.31,1013.65,2009.00,3708.01,3027.02,3477.29,0.00,0.00,0.00,0000 0000 0000 A000 020008
2018-10-01 05:40:47,0.00,0.00,0.00,26.97,31.37,33.40,-0.20,-4.33,1013.56,2009.00,3708.00,3027.00,3477.14,0.00,0.00,0.00,0000 0000 0000 A000 020008
2018-10-01 05:45:48,0.00,0.00,0.00,26.87,31.37,33.33,-0.20,-4.29,1013.31,2008.99,3708.00,3027.00,3477.07,0.00,0.00,0.00,0000 0000 0000 A000 020008
2018-10-01 05:50:50,0.00,0.00,0.00,26.78,31.38,33.12,-0.20,-4.29,1013.24,2008.99,3708.00,3027.00,3477.08,0.00,0.00,0.00,0000 0000 0000 A000 020008
2018-10-01 05:55:51,0.00,0.00,0.00,26.69,31.37,32.84,-0.20,-4.25,1013.21,2008.99,3708.00,3027.01,3477.14,0.00,0.00,0.00,0000 0000 0000 A000 020008
2018-10-01 06:00:52,0.00,0.00,0.00,26.65,31.37,32.60,-0.20,-4.25,1013.20,2008.99,3708.01,3027.05,3477.55,0.00,0.00,0.00,0000 0000 0000 A000 020008
2018-10-01 06:05:53,0.00,0.00,0.00,26.62,31.34,32.39,-0.20,-4.26,1013.20,2008.99,3708.18,3027.60,3477.95,0.00,0.00,0.00,0000 0000 0000 A000 020008
2018-10-01 06:10:54,0.00,0.00,0.00,26.57,31.30,32.19,-0.20,-4.25,1013.20,2009.00,3708.81,3027.97,3477.99,0.00,0.00,0.00,0000 0000 0000 A000 020008
2018-10-01 06:15:55,0.00,0.00,0.00,26.53,31.25,32.03,-0.20,-4.25,1013.20,2009.18,3708.99,3028.00,3478.37,0.00,0.00,0.00,0000 0000 0000 A000 020008
2018-10-01 06:20:56,0.00,0.00,0.00,26.49,31.19,31.86,-0.20,-4.25,1013.20,2009.66,3709.11,3028.24,3478.93,0.00,0.00,0.00,0000 0000 0000 A000 020008
2018-10-01 06:25:57,0.00,0.00,0.00,26.46,31.13,31.72,-0.20,-4.25,1013.18,2009.97,3709.86,3028.92,3479.02,0.00,0.00,0.00,0000 0000 0000 A000 020008
2018-10-01 06:30:58,0.00,0.00,0.00,26.43,31.06,31.59,-0.20,-4.23,1013.14,2009.99,3709.99,3028.99,3479.68,0.00,0.00,0.00,0000 0000 0000 A000 020008
2018-10-01 06:36:00,0.00,0.00,0.00,26.39,30.99,31.50,-0.20,-4.21,1012.98,2010.04,3710.45,3029.54,3480.00,0.00,0.00,0.00,0000 0000 0000 A000 020008
2018-10-01 06:41:01,0.00,0.00,0.00,26.36,30.92,31.41,-0.20,-4.17,1012.73,2010.66,3710.98,3029.98,3480.64,0.00,0.00,0.00,0000 0000 0000 A000 020008
2018-10-01 06:46:02,0.00,0.00,0.00,26.35,30.84,31.31,-0.20,-4.05,1012.72,2010.97,3711.13,3030.16,3480.99,0.00,0.00,0.00,0000 0000 0000 A000 020008
2018-10-01 06:51:03,0.00,0.00,0.00,26.30,30.77,31.24,-0.20,-4.13,1012.73,2011.00,3711.87,3030.90,3481.48,0.00,0.00,0.00,0000 0000 0000 A000 020008
2018-10-01 06:56:04,0.00,0.00,0.00,26.26,30.69,31.20,-0.20,-4.03,1012.72,2011.10,3712.00,3031.04,3481.98,0.00,0.00,0.00,0000 0000 0000 A000 020008
2018-10-01 07:01:05,0.00,0.00,0.00,26.25,30.62,31.17,-0.20,-4.01,1012.71,2011.67,3712.60,3031.73,3482.15,0.00,0.00,0.00,0000 0000 0000 A000 020008
2018-10-01 07:06:06,0.00,0.00,0.00,26.22,30.56,31.15,-0.20,-4.04,1012.72,2011.97,3712.99,3031.98,3482.92,0.00,0.00,0.00,0000 0000 0000 A000 020008
2018-10-01 07:11:08,0.00,0.00,0.00,26.21,30.50,31.13,-0.20,-4.05,1012.72,2011.99,3713.34,3032.17,3483.08,0.00,0.00,0.00,0000 0000 0000 A000 020008
2018-10-01 07:16:09,0.00,0.00,0.00,26.20,30.44,31.11,-0.20,-4.03,1012.71,2012.06,3713.97,3032.90,3483.84,0.00,0.00,0.00,0000 0000 0000 A000 020008
2018-10-01 07:21:10,0.00,0.00,0.00,26.20,30.39,31.10,-0.20,-4.03,1012.71,2012.61,3714.05,3033.00,3484.00,0.00,0.00,0.00,0000 0000 0000 A000 020008
2018-10-01 07:26:11,0.00,0.00,0.00,26.17,30.34,31.09,-0.20,-4.01,1012.71,2012.97,3714.77,3033.39,3484.61,0.00,0.00,0.00,0000 0000 0000 A000 020008
2018-10-01 07:31:12,0.00,0.00,0.00,26.17,30.29,31.06,-0.20,-4.00,1012.71,2012.99,3714.99,3033.97,3484.98,0.00,0.00,0.00,0000 0000 0000 A000 020008
2018-10-01 07:36:13,0.00,0.00,0.00,26.17,30.25,31.02,-0.20,-4.00,1012.69,2013.01,3715.28,3034.02,3485.29,0.00,0.00,0.00,0000 0000 0000 A000 020008
2018-10-01 07:41:15,0.00,0.00,0.00,26.19,30.20,31.00,-0.20,-4.03,1012.70,2013.17,3715.93,3034.38,3485.90,0.00,0.00,0.00,0000 0000 0000 A000 020008
2018-10-01 07:46:16,0.00,0.00,0.00,26.23,30.16,30.98,-0.20,-4.00,1012.70,2013.83,3716.01,3034.97,3486.00,0.00,0.00,0.00,0000 0000 0000 A000 020008
2018-10-01 07:51:17,0.00,0.00,0.00,26.25,30.11,30.95,-0.20,-4.00,1012.69,2013.98,3716.21,3035.00,3486.33,0.00,0.00,0.00,0000 0000 0000 A000 020008
2018-10-01 07:56:19,0.00,0.00,0.00,26.27,30.07,30.91,-0.20,-4.00,1012.56,2013.99,3716.89,3035.17,3486.92,0.00,0.00,0.00,0000 0000 0000 A000 020008
2018-10-01 08:01:20,0.00,0.00,0.00,26.26,30.03,30.89,-0.20,-4.00,1012.30,2014.00,3716.99,3035.86,3487.00,0.00,0.00,0.00,0000 0000 0000 A000 020008
2018-10-01 08:06:21,0.00,0.00,0.00,26.22,29.99,30.86,-0.20,-4.00,1012.27,2014.10,3717.12,3035.99,3487.44,0.00,0.00,0.00,0000 0000 0000 A000 020008
2018-10-01 08:11:22,0.00,0.00,0.00,26.21,29.94,30.84,-0.20,-4.00,1012.26,2014.78,3717.88,3036.21,3487.98,0.00,0.00,0.00,0000 0000 0000 A000 020008
2018-10-01 08:16:23,0.00,0.00,0.00,26.23,29.90,30.81,-0.20,-4.00,1012.28,2014.98,3717.99,3036.92,3488.07,0.00,0.00,0.00,0000 0000 0000 A000 020008
2018-10-01 08:21:24,0.00,0.00,0.00,26.22,29.87,30.87,-0.20,-4.00,1012.24,2014.99,3718.10,3036.99,3488.58,0.00,0.00,0.00,0000 0000 0000 A000 020008
2018-10-01 08:26:26,0.00,0.00,0.00,26.22,29.84,30.86,-0.20,-4.00,1012.25,2014.99,3718.55,3036.99,3488.96,0.00,0.00,0.00,0000 0000 0000 A000 020008
2018-10-01 08:31:27,0.00,0.00,0.00,26.21,29.81,30.90,-0.20,-4.00,1012.24,2015.05,3718.92,3037.05,3488.99,0.00,0.00,0.00,0000 0000 0000 A000 020008
2018-10-01 08:36:28,0.00,0.00,0.00,26.20,29.79,30.89,-0.20,-4.00,1012.24,2015.16,3718.99,3037.23,3489.00,0.00,0.00,0.00,0000 0000 0000 A000 020008
2018-10-01 08:41:30,0.00,0.00,0.00,26.17,29.77,30.89,-0.20,-4.00,1012.25,2015.36,3718.99,3037.50,3489.00,0.00,0.00,0.00,0000 0000 0000 A000 020008
2018-10-01 08:46:31,0.00,0.00,0.00,26.16,29.77,30.93,-0.20,-4.00,1012.24,2015.85,3719.01,3037.92,3489.21,0.00,0.00,0.00,0000 0000 0000 A000 020008
2018-10-01 08:51:31,0.00,0.00,0.00,26.15,29.75,30.95,-0.20,-4.00,1012.23,2015.97,3719.10,3037.99,3489.72,0.00,0.00,0.00,0000 0000 0000 A000 020008
2018-10-01 08:56:32,0.00,0.00,0.00,26.12,29.74,30.88,-0.20,-4.00,1012.23,2015.98,3719.75,3037.99,3489.98,0.00,0.00,0.00,0000 0000 0000 A000 020008
2018-10-01 09:01:33,0.00,0.00,0.00,26.12,29.72,30.83,-0.20,-4.00,1012.23,2015.99,3719.95,3038.01,3489.99,0.00,0.00,0.00,0000 0000 0000 A000 020008
2018-10-01 09:06:34,0.00,0.00,0.00,26.11,29.71,30.83,-0.20,-4.00,1012.22,2015.99,3719.98,3038.04,3489.99,0.00,0.00,0.00,0000 0000 0000 A000 020008
2018-10-01 09:11:36,0.00,0.00,0.00,26.10,29.69,30.83,-0.20,-4.00,1012.22,2015.99,3719.99,3038.20,3490.02,0.00,0.00,0.00,0000 0000 0000 A000 020008
2018-10-01 09:16:37,0.00,0.00,0.00,26.10,29.67,30.82,-0.20,-4.00,1012.22,2015.99,3719.99,3038.59,3490.15,0.00,0.00,0.00,0000 0000 0000 A000 020008
2018-10-01 09:21:38,0.00,0.00,0.00,26.10,29.65,30.80,-0.20,-4.00,1012.22,2016.01,3720.01,3038.88,3490.54,0.00,0.00,0.00,0000 0000 0000 A000 020008
2018-10-01 09:26:39,0.00,0.00,0.00,26.09,29.63,30.76,-0.20,-4.00,1012.22,2016.02,3720.16,3038.98,3490.95,0.00,0.00,0.00,0000 0000 0000 A000 020008
2018-10-01 09:31:40,0.00,0.00,0.00,26.09,29.62,30.77,-0.20,-3.99,1012.22,2016.07,3720.54,3038.99,3490.99,0.00,0.00,0.00,0000 0000 0000 A000 020008
2018-10-01 09:36:42,0.00,0.00,0.00,26.07,29.60,30.76,-0.20,-4.00,1012.22,2016.14,3720.90,3039.00,3490.99,0.00,0.00,0.00,0000 0000 0000 A000 020008
2018-10-01 09:41:43,0.00,0.00,0.00,26.06,29.58,30.73,-0.20,-4.00,1012.22,2016.62,3720.98,3039.13,3491.02,0.00,0.00,0.00,0000 0000 0000 A000 020008
2018-10-01 09:46:44,0.00,0.00,0.00,26.05,29.57,30.74,-0.20,-4.00,1012.22,2016.86,3720.99,3039.55,3491.13,0.00,0.00,0.00,0000 0000 0000 A000 020008
2018-10-01 09:51:46,0.00,0.00,0.00,26.05,29.55,30.71,-0.20,-4.00,1012.22,2016.95,3721.00,3039.87,3491.53,0.00,0.00,0.00,0000 0000 0000 A000 020008
2018-10-01 09:56:47,0.00,0.00,0.00,26.05,29.54,30.73,-0.20,-4.00,1012.19,2016.99,3721.05,3039.97,3491.93,0.00,0.00,0.00,0000 0000 0000 A000 020008
2018-10-01 10:01:48,0.00,0.00,0.00,26.05,29.52,30.73,-0.20,-4.00,1012.15,2016.99,3721.37,3039.99,3491.98,0.00,0.00,0.00,0000 0000 0000 A000 020008
2018-10-01 10:06:49,0.00,0.00,0.00,26.05,29.51,30.70,-0.20,-4.00,1012.18,2016.99,3721.72,3039.99,3491.99,0.00,0.00,0.00,0000 0000 0000 A000 020008
2018-10-01 10:11:51,0.00,0.00,0.00,26.05,29.50,30.70,-0.20,-4.00,1012.14,2016.99,3721.94,3039.99,3492.00,0.00,0.00,0.00,0000 0000 0000 A000 020008
2018-10-01 10:16:52,0.00,0.00,0.00,26.03,29.48,30.70,-0.20,-4.00,1012.05,2016.99,3721.99,3040.00,3492.02,0.00,0.00,0.00,0000 0000 0000 A000 020008
2018-10-01 10:21:53,0.00,0.00,0.00,26.01,29.47,30.70,-0.20,-4.00,1011.80,2016.99,3721.99,3040.02,3492.05,0.00,0.00,0.00,0000 0000 0000 A000 020008
2018-10-01 10:26:54,0.00,0.00,0.00,26.00,29.45,30.71,-0.20,-4.00,1011.74,2017.00,3721.99,3040.02,3492.10,0.00,0.00,0.00,0000 0000 0000 A000 020008
2018-10-01 10:31:55,0.00,0.00,0.00,26.00,29.45,30.70,-0.20,-3.99,1011.74,2017.02,3721.99,3040.18,3492.40,0.00,0.00,0.00,0000 0000 0000 A000 020008
2018-10-01 10:36:56,0.00,0.00,0.00,26.00,29.43,30.69,-0.20,-4.00,1011.73,2017.04,3722.02,3040.54,3492.81,0.00,0.00,0.00,0000 0000 0000 A000 020008
2018-10-01 10:41:58,0.00,0.00,0.00,26.00,29.42,30.67,-0.20,-4.00,1011.73,2017.08,3722.04,3040.82,3492.95,0.00,0.00,0.00,0000 0000 0000 A000 020008
2018-10-01 10:46:59,0.00,0.00,0.00,26.00,29.42,30.69,-0.20,-4.00,1011.73,2017.11,3722.03,3040.86,3492.98,0.00,0.00,0.00,0000 0000 0000 A000 020008
2018-10-01 10:52:00,0.00,0.00,0.00,26.00,29.40,30.68,-0.20,-4.00,1011.71,2017.18,3722.10,3040.94,3492.99,0.00,0.00,0.00,0000 0000 0000 A000 020008
2018-10-01 10:57:01,0.00,0.00,0.00,25.99,29.40,30.66,-0.20,-4.00,1011.57,2017.19,3722.09,3040.95,3492.99,0.00,0.00,0.00,0000 0000 0000 A000 020008
2018-10-01 11:02:02,0.00,0.00,0.00,25.97,29.40,30.65,-0.07,-1.49,1011.45,2017.59,3737.78,3042.78,3502.29,0.00,0.00,0.00,0000 0000 0000 A000 02000A
2018-10-01 11:07:04,0.00,0.00,0.00,25.98,29.38,30.66,0.00,0.00,1011.29,2017.74,3748.14,3044.02,3507.15,0.00,0.00,0.00,0000 0000 0000 A000 020008
2018-10-01 11:12:05,0.00,0.00,0.00,25.98,29.37,30.65,-0.00,0.00,1011.29,2017.89,3747.96,3044.12,3506.46,0.00,0.00,0.00,0000 0000 0000 A000 020008
2018-10-01 11:17:06,0.00,0.00,0.00,25.97,29.37,30.66,-0.00,0.00,1011.27,2017.91,3747.73,3044.28,3506.05,0.00,0.00,0.00,0000 0000 0000 A000 020008
2018-10-01 11:22:07,0.00,0.00,0.00,25.95,29.36,30.66,-0.00,0.01,1011.26,2017.95,3747.40,3044.55,3506.00,0.00,0.00,0.00,0000 0000 0000 A000 020008
2018-10-01 11:27:09,0.00,0.00,0.00,25.95,29.35,30.67,-0.00,0.00,1011.27,2017.97,3747.20,3044.83,3506.00,0.00,0.00,0.00,0000 0000 0000 A000 020008
2018-10-01 11:32:10,0.00,0.00,0.00,25.96,29.35,30.65,-0.00,0.00,1011.27,2017.98,3747.09,3044.94,3505.99,0.00,0.00,0.00,0000 0000 0000 A000 020008
2018-10-01 11:37:11,0.00,0.00,0.00,25.97,29.35,30.64,-0.01,0.00,1011.26,2017.99,3747.13,3044.98,3505.99,0.00,0.00,0.00,0000 0000 0000 A000 020008
2018-10-01 11:42:13,0.00,0.00,0.00,25.96,29.34,30.64,-0.00,0.00,1011.25,2017.98,3747.12,3044.98,3505.98,0.00,0.00,0.00,0000 0000 0000 A000 020008
2018-10-01 11:47:14,0.00,0.00,0.00,25.95,29.33,30.64,-0.00,0.00,1011.25,2017.98,3747.04,3044.98,3505.97,0.00,0.00,0.00,0000 0000 0000 A000 020008
2018-10-01 11:52:14,0.00,0.00,0.00,25.93,29.32,30.66,0.00,0.00,1011.25,2017.98,3747.02,3044.99,3505.98,0.00,0.00,0.00,0000 0000 0000 A000 020008
2018-10-01 11:57:15,0.00,0.00,0.00,25.92,29.32,30.65,-0.01,0.01,1011.25,2017.99,3747.01,3044.98,3505.95,0.00,0.00,0.00,0000 0000 0000 A000 020008
2018-10-01 12:02:16,0.00,0.00,0.00,25.92,29.32,30.67,-0.01,0.00,1011.24,2017.99,3747.00,3044.98,3505.91,0.00,0.00,0.00,0000 0000 0000 A000 020008
2018-10-01 12:07:17,0.00,0.00,0.00,25.93,29.32,30.65,-0.01,0.00,1011.14,2017.98,3747.00,3044.97,3505.76,0.00,0.00,0.00,0000 0000 0000 A000 020008
2018-10-01 12:12:18,0.00,0.00,0.00,25.95,29.32,30.62,-0.00,0.00,1010.92,2017.99,3747.01,3044.99,3505.90,0.00,0.00,0.00,0000 0000 0000 A000 020008
2018-10-01 12:17:19,0.00,0.00,0.00,25.97,29.30,30.63,-0.01,0.00,1010.81,2017.99,3747.00,3044.99,3505.93,0.00,0.00,0.00,0000 0000 0000 A000 020008
2018-10-01 12:22:20,0.00,0.00,0.00,25.97,29.30,30.66,-0.01,0.01,1010.79,2017.99,3747.00,3044.99,3505.90,0.00,0.00,0.00,0000 0000 0000 A000 020008
2018-10-01 12:27:22,0.00,0.00,0.00,26.00,29.30,30.69,-0.00,0.00,1010.77,2017.99,3747.01,3044.99,3505.93,0.00,0.00,0.00,0000 0000 0000 A000 020008
2018-10-01 12:32:23,0.00,0.00,0.00,26.02,29.31,30.68,-0.01,0.00,1010.76,2017.99,3747.00,3044.99,3505.83,0.00,0.00,0.00,0000 0000 0000 A000 020008
2018-10-01 12:37:24,0.00,0.00,0.00,26.02,29.31,30.72,-0.01,0.00,1010.76,2017.98,3747.00,3044.99,3505.53,0.00,0.00,0.00,0000 0000 0000 A000 020008
2018-10-01 12:42:25,0.00,0.00,0.00,26.02,29.32,30.77,-0.01,0.00,1010.76,2017.98,3747.00,3044.99,3505.34,0.00,0.00,0.00,0000 0000 0000 A000 020008
2018-10-01 12:47:26,0.00,0.00,0.00,26.02,29.32,30.82,-0.01,0.00,1010.76,2017.99,3747.00,3044.98,3505.32,0.00,0.00,0.00,0000 0000 0000 A000 020008
2018-10-01 12:52:28,0.00,0.00,0.00,26.02,29.33,30.89,-0.00,0.00,1010.77,2017.98,3746.98,3044.96,3505.05,0.00,0.00,0.00,0000 0000 0000 A000 020008
2018-10-01 12:57:29,0.00,0.00,0.00,26.00,29.35,30.93,-0.01,0.00,1010.76,2017.98,3746.97,3044.94,3505.02,0.00,0.00,0.00,0000 0000 0000 A000 020008
2018-10-01 13:02:30,0.00,0.00,0.00,26.00,29.35,30.95,-0.01,0.00,1010.76,2017.98,3746.98,3044.95,3505.01,0.00,0.00,0.00,0000 0000 0000 A000 020008
2018-10-01 13:07:31,0.00,0.00,0.00,26.00,29.37,30.94,-0.01,0.00,1010.76,2017.96,3746.92,3044.83,3505.00,0.00,0.00,0.00,0000 0000 0000 A000 020008
2018-10-01 13:12:32,0.00,0.00,0.00,25.99,29.38,30.95,-0.01,0.00,1010.76,2017.92,3746.71,3044.55,3504.99,0.00,0.00,0.00,0000 0000 0000 A000 020008
2018-10-01 13:17:33,0.00,0.00,0.00,25.99,29.40,31.00,-0.00,0.00,1010.76,2017.88,3746.47,3044.43,3504.98,0.00,0.00,0.00,0000 0000 0000 A000 020008
2018-10-01 13:22:34,0.00,0.00,0.00,25.99,29.41,31.03,-0.00,0.00,1010.76,2017.68,3746.07,3044.08,3504.94,0.00,0.00,0.00,0000 0000 0000 A000 020008